Home > Weather > Regensburg > Past weeks

Flag for Germany Past Weather in Regensburg, Bavaria, Germany — Yesterday and Last 2 Weeks

Now
73 °F

Broken clouds.


Feels Like: 76 °F
Forecast: 60 / 76 °F
Wind: 3 mph from North

Location: Hohenfels

Current Time: Jul 28, 2016 at 2:20:43 PM

Latest Report: Jul 28, 2016 at 1:58 PM


Visibility: N/A

Pressure: 30.03 "Hg

Humidity: 61%

Dew Point: 59 °F

Location of RegensburgLocation

Past Weather in Regensburg — Graph

°F

Regensburg Temperature Yesterday

Maximum temperature yesterday: 75 °F (at 12:58 PM)
Minimum temperature yesterday: 57 °F (at 2:58 AM)
Average temperature yesterday: 66 °F

High & Low Weather Summary for the Past Weeks

 TemperatureHumidityPressure
High84 °F (Jul 20, 3:58 PM)100% (Jul 13, 6:58 PM)30.33 "Hg (Jul 13, 6:58 PM)
Low50 °F (Jul 15, 5:58 AM)37% (Jul 20, 3:58 PM)29.88 "Hg (Jul 13, 1:58 PM)
Average65 °F80%30.09 "Hg
* Reported Jul 13 12:58 PM — Jul 28 12:58 PM, Regensburg, Weather by CustomWeather, © 2016

Note: Actual official high and low records may vary slightly from our data, if they occured in-between our weather recording intervals... More about our weather records

Advertising

Regensburg Weather History for the Previous 24 Hours

Scroll right to see more
 ConditionsComfort  
Time TempWeatherWind HumidityBarometerVisibility
12:58 PM
Thu, Jul 28
73 °FBroken clouds.5 mph57%30.05 "HgN/A
11:58 AM73 °FPartly sunny.5 mph57%30.06 "HgN/A
10:58 AM72 °FPartly sunny.6 mph65%30.06 "HgN/A
9:58 AM70 °FSunny.3 mph64%30.06 "HgN/A
8:58 AM68 °FSunny.2 mph73%30.06 "HgN/A
7:58 AM61 °FSunny.No wind94%30.06 "HgN/A
6:58 AM57 °FSunny.2 mph100%30.05 "HgN/A
6:04 AM57 °FFog.No wind100%30.08 "Hg1 mi
5:58 AM57 °FFog.1 mph100%30.05 "Hg1 mi
4:58 AM57 °FClear.1 mph100%30.06 "HgN/A
3:58 AM57 °FClear.2 mph100%30.06 "HgN/A
2:58 AM59 °FClear.1 mph94%30.06 "HgN/A
1:58 AM59 °FClear.2 mph100%30.05 "HgN/A
12:58 AM59 °FPassing clouds.2 mph100%30.04 "HgN/A
11:58 PM
Wed, Jul 27
59 °FClear.5 mph100%30.03 "HgN/A
10:58 PM61 °FClear.No wind100%30.03 "HgN/A
9:58 PM63 °FClear.5 mph100%30.03 "HgN/A
8:58 PM68 °FFog.1 mph100%30.01 "Hg1 mi
7:58 PM70 °FScattered clouds.3 mph94%30.00 "HgN/A
6:58 PM70 °FLight rain. Partly sunny.2 mph94%29.99 "HgN/A
5:58 PM72 °FSunny.2 mph83%29.98 "HgN/A
4:58 PM64 °FSunny.2 mph100%29.99 "HgN/A
3:58 PM64 °FLight rain. Fog.No wind100%30.02 "Hg6 mi
2:59 PM63 °FLight rain. Fog.2 mph94%30.03 "Hg5 mi
2:58 PM63 °FLight rain. Fog.3 mph94%30.01 "Hg2 mi
2:04 PM70 °FRain. Fog.2 mph88%30.03 "Hg2 mi
Weather by CustomWeather, © 2016

See weather overviewHow to use our weather pages